Change the Weather History Date:

Sunday, December 9, 2012

  Actual Average (KHTO) Record (KHTO)
Temperature  
Mean Temperature 48 °F -  
Max Temperature 50 °F 46 °F 64 °F (1991)
Min Temperature 45 °F 28 °F 10 °F (1934)
Degree Days  
Heating Degree Days 18    
Moisture  
Dew Point 42 °F    
Average Humidity 79    
Maximum Humidity 97    
Minimum Humidity 59    
Precipitation  
Precipitation 0.22 in - - ()
Sea Level Pressure  
Sea Level Pressure 30.18 in    
Wind  
Wind Speed 5 mph (NE)    
Max Wind Speed 9 mph    
Max Gust Speed 20 mph    
Averages and records for this station are not official NWS values.
T = Trace of Precipitation, MM = Missing Value Source: NWS Daily Summary

Daily Weather History Graph

Daily Weather History Graph

Search for Another Location

Airport or City:

Trip Planner

Search our weather history database for the weather conditions in past years. The results will help you decide how hot, cold, wet, or windy it might be!

Date:

Astronomy

Dec. 09, 2012 Rise Set
Actual Time 7:01 AM EST 4:19 PM EST
Civil Twilight 6:30 AM EST 4:50 PM EST
Nautical Twilight 5:55 AM EST 5:24 PM EST
Astronomical Twilight 5:22 AM EST 5:58 PM EST
Moon 2:29 AM EST (12/9) 1:25 PM EST (12/9)
Length of Visible Light 10h 19m
Length of Day
9h 17m
Waning Crescent, 19% of the Moon is Illuminated
Dec 9
Waning Crescent
Dec 13
New
Dec 20
First Quarter
Dec 28
Full
Jan 4
Last Quarter

Hourly Weather History & Observations

Time (EST) Temp. Windchill Dew Point Humidity Pressure Visibility Wind Dir Wind Speed Gust Speed Precip Events Conditions
12:54 AM 48.9 °F - 46.9 °F 93% 30.03 in - WSW 3.5 mph - N/A   Unknown
1:54 AM 48.9 °F - 48.0 °F 97% 30.04 in - Calm Calm - N/A   Unknown
2:54 AM 48.9 °F - 46.9 °F 93% 30.06 in - Calm Calm - N/A   Unknown
3:54 AM 48.9 °F - 46.9 °F 93% 30.09 in - WNW 5.8 mph - N/A   Unknown
4:54 AM 48.9 °F - 48.0 °F 97% 30.10 in - Calm Calm - N/A   Unknown
5:54 AM 48.9 °F - 45.0 °F 86% 30.15 in - NNW 4.6 mph - N/A   Unknown
6:54 AM 48.9 °F - 39.9 °F 71% 30.18 in - NNW 9.2 mph - N/A   Unknown
7:54 AM 48.0 °F - 39.0 °F 71% 30.21 in - North 5.8 mph - N/A   Unknown
8:54 AM 48.0 °F - 37.9 °F 68% 30.24 in - North 6.9 mph - N/A   Unknown
9:54 AM 48.9 °F - 39.0 °F 69% 30.25 in - North 6.9 mph - N/A   Unknown
10:54 AM 50.0 °F - 37.9 °F 63% 30.24 in - North 8.1 mph - N/A   Unknown
11:54 AM 50.0 °F - 37.9 °F 63% 30.23 in - NE 6.9 mph - N/A   Unknown
12:54 PM 50.0 °F - 37.0 °F 61% 30.23 in - ENE 4.6 mph - N/A   Unknown
1:54 PM 48.9 °F - 37.9 °F 66% 30.23 in - ENE 8.1 mph - N/A   Unknown
2:54 PM 48.9 °F - 35.1 °F 59% 30.24 in - ENE 5.8 mph - N/A   Unknown
3:54 PM 46.9 °F - 37.9 °F 71% 30.25 in - ENE 6.9 mph - N/A   Unknown
4:54 PM 46.9 °F - 39.0 °F 74% 30.24 in - Variable 4.6 mph - 0.01 in   Unknown
5:54 PM 46.9 °F - 39.9 °F 77% 30.25 in - East 5.8 mph - N/A   Unknown
6:54 PM 45.0 °F 41.2 °F 37.9 °F 76% 30.26 in - East 6.9 mph - 0.02 in   Unknown
7:54 PM 45.0 °F 41.2 °F 42.1 °F 90% 30.23 in - East 6.9 mph - 0.07 in   Unknown
8:54 PM 46.0 °F 41.4 °F 43.0 °F 89% 30.19 in - East 9.2 mph 19.6 mph 0.02 in   Unknown
9:54 PM 46.9 °F - 45.0 °F 93% 30.16 in - East 6.9 mph 18.4 mph 0.03 in   Unknown
10:54 PM 48.0 °F - 46.0 °F 93% 30.12 in - East 9.2 mph 19.6 mph 0.03 in   Unknown
11:54 PM 48.9 °F - 46.9 °F 93% 30.07 in - East 9.2 mph 19.6 mph 0.04 in   Unknown